Torna al catalogo

STARLINK-34592

AttivoComunicazioniVLEO
NORAD 64746·PAYLOAD·🇺🇸 United States

Lanciato Jul 2, 2025 da Cape Canaveral Space Force Station

Loading…

Prossimi Passaggi (prossime 24 ore)

TLE

AggiornatoSource: CelesTrak SupGP

Epoca: Sep 15, 2026, 03:52 UTC

1 64746C 25144Y   26258.16159722  .00075978  00000+0  22440-2 0  2586
2 64746  53.1607   6.5870 0001167  82.3644 268.4197 15.34363432    11

Traccia STARLINK-34592 in tempo reale con AllMySat

Download on the App Store